Regional Weather Roundup
Issued by NWS

Home | Current Version | Previous Version | Text Only | Print | Product List | Glossary On
Versions: 1 2 3 4 5 6 7 8 9 10 11 12 13 14 15 16 17 18 19 20 21 22 23 24 25 26 27 28 29 30 31 32 33 34 35 36 37 38 39 40 41 42 43 44 45 46 47 48 49 50
922
ASUS44 KFWD 210710
RWRTX
NORTH TEXAS HOURLY WEATHER ROUNDUP
NATIONAL WEATHER SERVICE FORT WORTH TX
100 AM CST WED FEB 21 2018

NOTE: "FAIR" INDICATES FEW OR NO CLOUDS BELOW 12,000 FEET WITH NO
SIGNIFICANT WEATHER AND/OR OBSTRUCTIONS TO VISIBILITY.

TXZ118-119-210800-
DALLAS/FORT WORTH METROPLEX

CITY           SKY/WX    TMP DP  RH WIND       PRES   REMARKS
DFW AIRPORT    LGT RAIN  39  36  89 N16       30.17R WCI  30
DALLAS LOVE    RAIN      38  36  92 N15       30.17S FOG     WCI  29
FTW MEACHAM    CLOUDY    37  32  82 N16G29    30.19R WCI  28
DAL-EXECUTIVE  LGT RAIN  39  37  92 N12       30.15R WCI  32
FTW-ALLIANCE   CLOUDY    36  33  89 N16G26    30.20R WCI  26
FTW-NAS-JRB    CLOUDY    37  33  85 N20G25    30.20R WCI  27
FTW-SPINKS     CLOUDY    37  35  92 N14G22    30.20R WCI  28
ARLINGTON      MIX PCPN  37  32  82 N20       30.17R WCI  27
GRAND PRAIRIE  CLOUDY    38  38 100 N15       30.19R WCI  29
ADDISON        RAIN      36  35  94 N8G16     30.20R WCI  30
MESQUITE       CLOUDY    38  37  95 N14G26    30.17R WCI  30
LANCASTER      CLOUDY    39  37  92 N18       30.17R WCI  29
$$

TXZ091>094-102>105-117-120-121-131>134-210800-
NORTH CENTRAL TEXAS

CITY           SKY/WX    TMP DP  RH WIND       PRES   REMARKS
SHRMAN/DENISON LGT RAIN  33  32  95 N16G22    30.22R WCI  23
GAINESVILLE    FLURRIES  32  31  94 NE15G26   30.22F WCI  22
BOWIE          CLOUDY    31  29  94 NW20      30.22F WCI  19
BRIDGEPORT     CLOUDY    33  33 100 N14G24    30.24S WCI  23
DECATUR        MIX PCPN  32  32  99 NW10      30.21R WCI  24
DENTON         LGT RAIN  34  33  96 N16       30.21R WCI  24
MCKINNEY       HVY RAIN  35  35 100 N20G26    30.18S FOG     WCI  24
BONHAM         LGT SNOW  33  32  96 N10G16    30.22R FOG     WCI  25
GREENVILLE     LGT SNOW  41  39  93 N15G23    30.16F WCI  33
ROCKWALL       LGT RAIN  37  37 100 N14G22    30.16F WCI  28
TERRELL        RAIN      39  37  92 N10       30.16R FOG     WCI  32
WAXAHACHIE     LGT RAIN  38  38 100 N14G25    30.16S WCI  30
GRANBURY       LGT RAIN  38  36  91 N13       30.19S WCI  30
$$

TXZ083>090-098>101-113>116-127>130-139>142-154-155-210800-
WESTERN NORTH TEXAS

CITY           SKY/WX    TMP DP  RH WIND       PRES   REMARKS
WICHITA FALLS  CLOUDY    29  24  82 N20       30.31R WCI  16
WF-KICKAPOO    CLOUDY    30  25  84 N18       30.33R WCI  17
VERNON         FAIR      31  19  61 N16G25    30.32R WCI  20
ABILENE        CLOUDY    32  32 100 N22       30.18S WCI  19
ABILENE-DYESS  LGT RAIN  32  32  98 N16       30.19R WCI  21
GRAHAM           N/A     30  32 100 N14G26    30.22R WCI  20
CISCO          CLOUDY    32  32 100 N17G28    30.14F FOG     WCI  21
EASTLAND       CLOUDY    32  30  94 N16G23    30.16F WCI  21
RANGER         CLOUDY    32  32 100 N14       30.16F WCI  22
MINERAL WELLS  LGT RAIN  33  31  92 N20G26    30.18S WCI  21
STEPHENVILLE   CLOUDY    35  33  93 N17G25    30.17S WCI  24
COMANCHE       CLOUDY    35  35 100 N16G23    30.14F FOG     WCI  25
BROWNWOOD      CLOUDY    37  36  93 N13       30.13R FOG     WCI  29
COLEMAN        CLOUDY    36  34  93 N20G30    30.12R FOG     WCI  25
$$

TXZ143>147-156>162-174-175-210800-
CENTRAL TEXAS

CITY           SKY/WX    TMP DP  RH WIND       PRES   REMARKS
WACO           CLOUDY    41  39  93 N13G21    30.13R WCI  34
WACO-MCGREGOR  CLOUDY    41  40  96 N15G23    30.13R WCI  33
HILLSBORO      CLOUDY    40  40  99 N15       30.13S WCI  32
CORSICANA      LGT RAIN  43  42  97 N15G25    30.13S FOG     WCI  36
MEXIA          RAIN      44  43  97 N18       30.09R WCI  36
HEARNE         CLOUDY    52  52 100 NW15      30.07R
CAMERON        HVY RAIN  46  45  94 N9        30.08F
TEMPLE         LGT RAIN  42  42 100 N18       30.09R WCI  34
KILLEEN        LGT RAIN  39  39 100 N17       30.07R WCI  30
KILLEEN-SKYLRK LGT RAIN  42  41  96 N12       30.09R WCI  36
FORT HOOD      LGT RAIN  41  41 100 N16       30.05R FOG     WCI  33
GATESVILLE     MOCLDY    39  39 100 N9G15     30.12R WCI  33
HAMILTON       CLOUDY    38  38 100 N17G24    30.11F FOG     WCI  28
LAMPASAS       TSTM      39  38  97 N15G21    30.05S WCI  31
$$

TXZ095>097-106>112-122>126-135>138-148>153-164>167-210800-
EAST TEXAS

CITY           SKY/WX    TMP DP  RH WIND       PRES   REMARKS
PARIS          LGT RAIN  39  37  92 N14       30.16R FOG     WCI  31
SULPHUR SPRNGS RAIN      41  40  98 N17       30.15F WCI  32
MOUNT PLEASANT CLOUDY    46  45  96 NW10      30.14S
GILMER         DRIZZLE   49  48  95 NW10      30.10R
MINEOLA        LGT RAIN  43  43 100 N13       30.12F WCI  36
TYLER          LGT RAIN  49  48  97 N13       30.08R
LONGVIEW       CLOUDY    71  70  96 S6        30.05R
MARSHALL       CLOUDY    70  66  88 S7        30.08R
ATHENS         CLOUDY    43  43 100 N9        30.11R WCI  37
PALESTINE      CLOUDY    55  54  99 NW7       30.06S FOG
JACKSONVILLE   CLOUDY    69  68  97 S8        30.07S
HENDERSON      CLOUDY    71  67  89 S3        30.07R
CENTER         CLOUDY    71  67  88 SE10G16   30.09S
NACOGDOCHES    FAIR      71  68  90 S15G21    30.06F
LUFKIN         MOCLDY    71  68  90 S10       30.07F
$$

SUPPLEMENTAL OBSERVATIONS (NWS FORT WORTH AREA)

CITY           SKY/WX    TMP DP  RH WIND       PRES   REMARKS
CADDO GRASSLND   N/A     36  34  93 N7G17       N/A  WCI  30
PAT MAYSE LAKE   N/A     36  34  93 NW13        N/A  WCI  27
GREENVILLE       N/A     37  34  87 N20         N/A  WCI  27
CEDAR HILL       N/A     37  34  87 N8G23       N/A  WCI  31
LBJ GRASSLAND    N/A     32  30  93 NW13G22     N/A  WCI  22
POSSUM KINGDOM   N/A     32  28  86 N13G23      N/A  WCI  22
GRANBURY         N/A     37  32  81 N14G22      N/A  WCI  29
TEMPLE           N/A     43  41  93 VRB12G23    N/A  WCI  37
$$

SUPPLEMENTAL OBSERVATIONS (NWS NORMAN AREA)

CITY           SKY/WX    TMP DP  RH WIND       PRES   REMARKS
GOODLETT         N/A     28  17  65 N20G26    30.30S WCI  14
ODELL            N/A     28  21  76 N21       30.32S WCI  14
CROWELL          N/A     29  21  73 N23       30.30S WCI  15
KNOX CITY        N/A     31  21  66 N23G32    30.29R WCI  18
SEYMOUR          N/A     30  22  73 N25       30.29R WCI  15
MILLERS CREEK    N/A     32  27  80 N17G25      N/A  WCI  21
$$

SUPPLEMENTAL OBSERVATIONS (NWS SAN ANGELO AREA)

CITY           SKY/WX    TMP DP  RH WIND       PRES   REMARKS
WEINERT          N/A     30  22  71 N17       30.28R WCI  19
HASKELL          N/A     30  24  79 N23G30    30.24F WCI  17
THROCKMORTON     N/A     30  28  89 N12G17    30.24F WCI  21
STAMFORD         N/A     31  26  83 N20       30.24F WCI  19
CLYDE            N/A     31  31  99 N14       30.18S WCI  21
HAMBY            N/A     32  30  93 N15         N/A  WCI  22
IVIE RESERVOIR   N/A     37  36  93 N12         N/A  WCI  30
COLORADO BEND    N/A     39  37  93 N8G16       N/A  WCI  34
$$

SUPPLEMENTAL OBSERVATIONS (NWS SHREVEPORT AREA)

CITY           SKY/WX    TMP DP  RH WIND       PRES   REMARKS
CLARKSVILLE      N/A     41  39  93 N12G21      N/A  WCI  34
TEXARKANA        N/A    N/A N/A N/A N6G15       N/A
LINDEN           N/A    N/A N/A N/A NW5         N/A
GILMER           N/A     50  48  93 N10G21      N/A
HENDERSON        N/A     72  68  88 S8          N/A
LUFKIN           N/A     72  66  83 MISG        N/A
N SABINE NF      N/A     72  66  83 MISG        N/A
S SABINE NF      N/A     72  66  83 SW3         N/A
$$

SUPPLEMENTAL OBSERVATIONS ARE A COLLECTION OF AUTOMATED INSTRUMENTS
THAT ARE MAINTAINED BY A VARIETY OF FEDERAL AND STATE AGENCIES.
CERTAIN ELEMENTS...SUCH AS HUMIDITY VALUES AND SUSTAINED WIND
SPEEDS...MAY BE APPROXIMATED.





USA.gov is the U.S. government's official web portal to all federal, state and local government web resources and services.